◎2007 TU24の接近    [From JSGA Web News No. 128]



JSGA Web News No. 128                                             2008 Feb. 16



アポロ型特異小惑星 2007 TU24の接近

  カテリナ・スカイサーベイで2007年10月11日に下の位置を捜索したサーベイフレーム

上に20等級の小惑星が発見された.この小惑星は,2008年2月下旬に地球に約0.02 AU

まで接近し,13等級まで明るくなることが予報された(MPEC T86 (2007)).



     K07T24U* C2007 10 11.26838 00 43 17.43 -14 27 58.9          20.3 Vrv8884703



  その後に報告された追跡観測からの改良軌道によると,地球との接近距離は,さらに

小さくなり,小惑星は10等級まで明るくなるものと推定された.下の軌道は,発見から,

その接近後,2008年2月7日までに行なわれた460個の観測から決定されたもの.



 この軌道によると,小惑星は,2008年1月29.3日UTに地球に0.0037 AU(約55.5万Km)

まで接近した後,同日29.7日には,月にも0.0057 AUまで接近した.なお,小惑星の標

準等級は,H=20.4等で,小惑星の直径は,約284-mほどと推測される.

               。

       Mo=  42.8429                Epoch = 2008 May 14.0 TT

       ω = 334.1820                   e =   0.535804          H = 20.4

       Ω = 127.0812    (2000.0)       a =   2.041763 AU       G =  0.15

       i =   5.6236                   n゚=   0.3378283

       q =   0.947779 AU              P =   2.92 年



  以下に,2008年1月と2月の予報位置を掲げる.接近日の1月29日頃には,小惑星は,

10等級まで明るくなり,日々運動 70゚を越える猛烈な速度で移動したことがわかる.



  美星スペースガードセンターでも、その接近前の1月27日に下のとおり,1.0-m反射を

使用して,追跡観測を行なった.我が国では,雄踏の和久田俊一氏(S. Wakuda, 379; 

Yuto)により,精力的に追跡観測が行なわれた.報告された観測の約1割の観測(50個)

が氏による観測である.



     K07T24U 1C2008 01 27.41767 00 40 55.06 -05 26 00.1          15.8 R      300

     K07T24U 1C2008 01 27.41990 00 40 56.07 -05 24 47.4          15.5 R      300

     K07T24U 1C2008 01 27.42059 00 40 56.40 -05 24 24.6          15.6 R      300

     K07T24U 1C2008 01 27.42133 00 40 56.74 -05 24 00.0          15.4 R      300



2008/        α  (2000) δ      △      r      日々運動   Elong.  Phase   V  

  0h TT     h  m       。  ,        AU      AU     ,  PA 。     。      。      等

Jan.  1   00 05.60  -23 36.3    0.148   0.951   11.9/ 62    73.0   98.5   19.7

      2   00 06.37  -23 30.8    0.143   0.949   12.0/ 62    72.2   99.5   19.7

      3   00 07.13  -23 25.0    0.138   0.949   12.1/ 61    71.5  100.6   19.6

      4   00 07.90  -23 19.1    0.133   0.948   12.2/ 60    70.7  101.6   19.6

      5   00 08.66  -23 12.9    0.128   0.947   12.3/ 58    70.0  102.7   19.6

      6   00 09.42  -23 06.5    0.123   0.947   12.4/ 57    69.3  103.8   19.5

      7   00 10.17  -22 59.7    0.118   0.947   12.6/ 56    68.5  104.8   19.5

      8   00 10.93  -22 52.6    0.113   0.947   12.8/ 54    67.8  105.9   19.5

      9   00 11.68  -22 45.1    0.107   0.947   13.1/ 52    67.1  106.9   19.4

     10   00 12.43  -22 37.2    0.102   0.947   13.4/ 51    66.3  108.0   19.4

     11   00 13.18  -22 28.6    0.097   0.947   13.9/ 48    65.6  109.0   19.3

     12   00 13.92  -22 19.4    0.092   0.948   14.4/ 46    64.9  110.1   19.3

     13   00 14.67  -22 09.4    0.087   0.949   15.1/ 44    64.2  111.1   19.2

     14   00 15.42  -21 58.5    0.081   0.950   16.1/ 41    63.5  112.1   19.1

     15   00 16.18  -21 46.4    0.076   0.951   17.3/ 38    62.7  113.2   19.1

     16   00 16.95  -21 32.8    0.071   0.952   18.9/ 36    62.0  114.2   19.0

     17   00 17.74  -21 17.5    0.066   0.954   21.0/ 33    61.4  115.2   18.9

     18   00 18.56  -20 59.8    0.060   0.956   23.9/ 30    60.7  116.2   18.8

     19   00 19.42  -20 39.2    0.055   0.957   27.8/ 28    60.0  117.1   18.6

     20   00 20.34  -20 14.5    0.050   0.959   33.3/ 25    59.4  118.1   18.5

     21   00 21.35  -19 44.4    0.045   0.962   41.2/ 23    58.8  118.9   18.3

     22   00 22.51  -19 06.6    0.039   0.964   53.0/ 22    58.3  119.8   18.1

     23   00 23.88  -18 17.3    0.034   0.966   71.4/ 20    57.8  120.5   17.9

     24   00 25.62  -17 10.3    0.029   0.969  102.6/ 19    57.5  121.0   17.5

     25   00 27.96  -15 33.4    0.023   0.972  161.1/ 18    57.5  121.4   17.1

     26   00 31.46  -13 00.5    0.018   0.975  279.6/ 18    57.9  121.1   16.6

     27   00 37.24  -08 34.3    0.013   0.978  645.0/ 17    59.5  119.8   15.8

     28   00 50.08  +01 41.5    0.008   0.981 2158.9/ 17    64.9  114.7   14.4

     29   01 39.56  +35 47.7    0.004   0.985 4208.5/ 21    88.4   91.4   11.7

     30   09 58.05  +65 22.7    0.005   0.988 1466.9/135   131.1   48.7   10.7

     31   11 36.00  +44 54.7    0.009   0.992  495.5/155   136.2   43.4   11.9

Feb.  1   11 53.19  +37 18.7    0.015   0.996  237.6/159   136.3   43.1   12.9

      2   12 00.12  +33 36.7    0.020   1.000  137.9/160   136.4   42.9   13.5

      3   12 03.77  +31 26.7    0.025   1.004   89.6/162   136.7   42.3   14.0

      4   12 05.95  +30 01.7    0.030   1.008   62.7/163   137.2   41.7   14.4

      5   12 07.34  +29 01.7    0.035   1.012   46.1/165   137.7   40.9   14.8

      6   12 08.25  +28 17.1    0.041   1.017   35.4/167   138.4   40.1   15.1

      7   12 08.83  +27 42.6    0.046   1.021   28.0/170   139.1   39.2   15.3

      8   12 09.18  +27 15.0    0.051   1.026   22.7/174   139.8   38.3   15.5

      9   12 09.36  +26 52.4    0.057   1.031   19.0/178   140.6   37.4   15.7

     10   12 09.41  +26 33.5    0.062   1.036   16.2/183   141.4   36.5   15.9

     11   12 09.35  +26 17.3    0.068   1.041   14.2/188   142.2   35.5   16.1

     12   12 09.21  +26 03.2    0.073   1.046   12.8/193   143.0   34.6   16.2

     13   12 09.00  +25 50.7    0.078   1.051   11.8/198   143.8   33.7   16.4

     14   12 08.72  +25 39.5    0.084   1.057   11.1/204   144.6   32.7   16.5

     15   12 08.40  +25 29.4    0.089   1.062   10.6/208   145.4   31.8   16.6

     16   12 08.02  +25 20.1    0.095   1.068   10.3/213   146.3   30.9   16.8

     17   12 07.61  +25 11.4    0.100   1.074   10.1/217   147.1   30.0   16.9

     18   12 07.17  +25 03.3    0.106   1.079   10.1/220   147.9   29.1   17.0

     19   12 06.69  +24 55.6    0.111   1.085   10.1/223   148.7   28.2   17.1

     20   12 06.18  +24 48.3    0.117   1.091   10.1/226   149.5   27.4   17.2

     21   12 05.65  +24 41.2    0.123   1.097   10.2/228   150.3   26.6   17.2

     22   12 05.09  +24 34.4    0.128   1.103   10.3/230   151.0   25.7   17.3

     23   12 04.52  +24 27.7    0.134   1.109   10.4/231   151.8   24.9   17.4

     24   12 03.92  +24 21.1    0.140   1.116   10.6/232   152.5   24.2   17.5

     25   12 03.31  +24 14.6    0.146   1.122   10.7/233   153.2   23.4   17.6

     26   12 02.69  +24 08.1    0.152   1.128   10.8/233   153.9   22.7   17.7

     27   12 02.05  +24 01.7    0.158   1.135   11.0/234   154.6   22.0   17.7

     28   12 01.41  +23 55.2    0.164   1.141   11.1/234   155.3   21.3   17.8

     29   12 00.76  +23 48.7    0.170   1.148   11.2/234   155.9   20.7   17.9

Mar.  1   12 00.10  +23 42.1    0.176   1.154   11.2/234   156.5   20.0   17.9





軌道と残差:

 

2007 TU24

Epoch 2008 May 14.0 TT = JDT 2454600.5                  MPCN

M  42.84289              (2000.0)            P               Q

n   0.33782827     Peri.  334.18205     -0.19698960     -0.97728376

a   2.0417633      Node   127.08122     +0.91562782     -0.21189184

e   0.5358039      Incl.    5.62357     +0.35045798     +0.00427819

P   2.92           H   20.4           G   0.15           U   3

Residuals in seconds of arc 

071011 703  0.7+  1.6+    080127 415  1.3+  1.6-    080130 448  0.3+  0.8-  

071011 703  0.8-  1.8+    080127 415  0.7-  1.9-    080130 448  0.4-  0.3+  

071011 703  0.5-  1.3+    080127 B34 (0.8-  4.3-)   080130 448  0.0   0.5-  

071011 703  0.4-  1.3+    080127 B34 (0.8-  4.9-)   080130 448  0.2-  0.9-  

071011 651  0.2-  0.4+    080127 473  0.4-  0.3-    080130 448  0.3+  0.4-  

071011 651  0.6-  0.1+    080127 473  0.4-  0.3-    080130 448  0.1+  0.4-  

071011 651  0.4-  0.5+    080127 473  0.1-  1.0-    080130 704  0.0   0.1-  

071011 649  0.3-  0.3-    080127 480  0.2-  1.4-    080130 704  0.5+  0.5-  

071011 649  0.3-  0.3+    080127 J76  0.3+  0.0     080130 704  0.5+  0.8+  

071011 649  0.4-  0.1+    080127 J76  0.5+  0.4-    080130 704  0.1+  1.5+  

071011 649  0.3-  0.1+    080127 J76  0.2+  0.0     080130 J37  0.0   0.7-  

071011 703  0.4-  0.4+    080128 H45  0.6+  1.2+    080130 J37  0.5-  0.4-  

071011 703  0.5-  0.4+    080128 H45  0.3+  0.6+    080130 J37  0.5+  1.5-  

071011 703  0.3+  0.5+    080128 H45  0.5+  1.5+    080130 J37  0.3+  1.0-  

071011 703  0.2-  0.5+    080128 H45  0.2+  1.0+    080130 A92  0.7+  1.8+  

071012 204  0.0   0.1-    080128 H45  0.0   1.2+    080130 A92  1.2+  1.5+  

071012 204  0.3-  0.3-    080128 H45  0.2+  0.5+    080130 A92  1.2+  1.6+  

071012 673  0.6+  0.1+    080128 H45  0.2+  0.7+    080131 B15  0.1-  0.7-  

071012 673  0.0   0.2+    080128 H45  0.5+  0.9+    080131 B15  0.1+  0.5-  

071012 673  0.3+  0.2+    080128 H45  0.0   0.5+    080131 B15  0.2+  0.8-  

071012 673  0.2-  0.1-    080128 H45  0.6+  1.0+    080131 B15  0.2+  0.5-  

071012 G96  0.0   0.1-    080128 H45  0.5+  1.0+    080131 B15  0.1+  0.8-  

071012 G96  0.2+  0.2+    080128 H45  0.2+  0.9+    080131 J51  0.2-  0.5-  

071012 G96  0.0   0.0     080128 H45  0.5+  0.7+    080131 J51  0.1-  0.7-  

071012 G96  0.2-  0.1-    080128 H45  0.4+  0.3+    080131 J51  0.4+  0.5-  

071012 474  0.4-  0.3-    080128 H45  0.3+  0.9+    080131 J51  0.7-  0.1-  

071012 474  0.5+  0.1-    080128 H45  0.5+  0.8+    080131 379  0.1+  0.3+  

071012 474  0.5-  0.1-    080128 H45  0.7+  1.3+    080131 379  0.1-  0.6+  

071013 A56  0.4+  1.7+    080128 H45  0.4+  0.7+    080131 379  0.2-  0.6+  

071013 A56  0.1+  0.9+    080128 H45  0.5+  0.9+    080131 379  0.1-  0.5+  

071013 A56  0.0   0.9+    080128 H45  0.3+  0.8+    080131 379  0.1-  0.4+  

071013 A56  0.2+  0.0     080128 H45  0.2+  0.7+    080131 379  0.2-  0.3+  

071014 G96  0.1-  0.1-    080128 H45  0.0   0.9+    080131 379  0.4-  0.7+  

071014 G96  0.3+  0.1+    080128 H45  0.3+  0.7+    080131 379  0.2-  0.5+  

071014 G96  0.3+  0.1+    080128 H45  0.6+  1.1+    080131 379  0.3-  0.8+  

071014 G96  0.3+  0.0     080128 H45  0.3+  1.1+    080131 379  0.3-  0.3+  

071014 246  0.6-  0.3+    080128 H45  0.0   1.2+    080131 379  0.5-  0.1+  

